• In Uzbekistan
  • List of Countries
  • For 7 days
  • Water Temperature
  • Satellite Maps
  • Weather Map
  • Weather Widgets
  • user-avatar
    Login

    Hourly Weather Csorna

    Today, 19 October, Thursday

    Time Temperature Precipitation Wind Pressure Humidity
    00:00 +13°C° 0 mm 1 mps 751 mmHg 73%
    01:00 +13°C° 0 mm 1 mps 751 mmHg 75%
    02:00 +13°C° 0 mm 1 mps 751 mmHg 77%
    03:00 +12°C° 0 mm 1 mps 751 mmHg 80%
    04:00 +12°C° 0 mm 1 mps 751 mmHg 82%
    05:00 +12°C° 0 mm 1 mps 751 mmHg 82%
    06:00 +12°C° 0 mm 1 mps 751 mmHg 83%
    07:00 +12°C° 0 mm 1 mps 751 mmHg 83%
    08:00 +14°C° 0 mm 1 mps 751 mmHg 75%
    09:00 +16°C° 0 mm 1 mps 751 mmHg 66%
    10:00 +19°C° 0 mm 1 mps 751 mmHg 58%
    11:00 +20°C° 0 mm 1 mps 751 mmHg 53%
    12:00 +21°C° 0 mm 1 mps 751 mmHg 49%
    13:00 +22°C° 0 mm 1 mps 751 mmHg 44%
    14:00 +22°C° 0 mm 1 mps 751 mmHg 46%
    15:00 +21°C° 0 mm 1 mps 751 mmHg 49%
    16:00 +21°C° 0 mm 1 mps 750 mmHg 51%
    17:00 +19°C° 0 mm 1 mps 751 mmHg 55%
    18:00 +16°C° 0 mm 0 mps 751 mmHg 59%
    19:00 +14°C° 0 mm 0 mps 751 mmHg 64%
    20:00 +14°C° 0 mm 0 mps 751 mmHg 66%
    21:00 +13°C° 0 mm 0 mps 752 mmHg 68%
    22:00 +13°C° 0 mm 0 mps 752 mmHg 70%
    23:00 +13°C° 0 mm 0 mps 752 mmHg 72%

    Tomorrow, 20 October, Friday

    Time Temperature Precipitation Wind Pressure Humidity
    00:00 +12°C° 0 mm 0 mps 752 mmHg 73%
    01:00 +12°C° 0 mm 0 mps 752 mmHg 75%
    02:00 +12°C° 0 mm 0 mps 752 mmHg 77%
    03:00 +11°C° 0 mm 0 mps 752 mmHg 78%
    04:00 +11°C° 0 mm 0 mps 752 mmHg 80%
    05:00 +11°C° 0 mm 0 mps 752 mmHg 80%
    06:00 +11°C° 0 mm 0 mps 752 mmHg 81%
    07:00 +11°C° 0 mm 0 mps 753 mmHg 81%
    08:00 +13°C° 0 mm 0 mps 753 mmHg 73%
    09:00 +15°C° 0 mm 0 mps 753 mmHg 65%
    10:00 +17°C° 0 mm 0 mps 753 mmHg 58%
    11:00 +18°C° 0 mm 0 mps 753 mmHg 54%
    12:00 +19°C° 0 mm 0 mps 753 mmHg 50%
    13:00 +20°C° 0 mm 0 mps 752 mmHg 46%
    14:00 +20°C° 0 mm 0 mps 752 mmHg 48%
    15:00 +21°C° 0 mm 1 mps 752 mmHg 50%
    16:00 +21°C° 0 mm 1 mps 752 mmHg 52%
    17:00 +19°C° 0 mm 1 mps 753 mmHg 57%
    18:00 +18°C° 0 mm 1 mps 753 mmHg 61%
    19:00 +15°C° 0 mm 1 mps 753 mmHg 65%
    20:00 +15°C° 0 mm 1 mps 754 mmHg 66%
    21:00 +15°C° 0 mm 1 mps 754 mmHg 68%
    22:00 +13°C° 0 mm 0 mps 754 mmHg 69%
    23:00 +14°C° 0 mm 1 mps 754 mmHg 71%

    Day after tomorrow, 21 October, Saturday

    Time Temperature Precipitation Wind Pressure Humidity
    00:00 +14°C° 0 mm 1 mps 754 mmHg 72%
    01:00 +13°C° 0 mm 1 mps 754 mmHg 74%
    02:00 +13°C° 0 mm 1 mps 754 mmHg 75%
    03:00 +13°C° 0 mm 1 mps 754 mmHg 77%
    04:00 +12°C° 0 mm 1 mps 754 mmHg 78%
    05:00 +12°C° 0 mm 1 mps 754 mmHg 78%
    06:00 +12°C° 0 mm 1 mps 754 mmHg 77%
    07:00 +12°C° 0 mm 1 mps 754 mmHg 77%
    08:00 +14°C° 0 mm 1 mps 754 mmHg 70%
    09:00 +16°C° 0 mm 1 mps 754 mmHg 63%
    10:00 +19°C° 0 mm 1 mps 755 mmHg 56%
    11:00 +20°C° 0 mm 1 mps 754 mmHg 53%
    12:00 +21°C° 0 mm 1 mps 754 mmHg 49%
    13:00 +22°C° 0 mm 1 mps 754 mmHg 46%
    14:00 +22°C° 0 mm 1 mps 753 mmHg 48%
    15:00 +21°C° 0 mm 1 mps 753 mmHg 50%
    16:00 +21°C° 0 mm 1 mps 753 mmHg 52%
    17:00 +20°C° 0 mm 1 mps 753 mmHg 56%
    18:00 +18°C° 0 mm 1 mps 753 mmHg 59%
    19:00 +16°C° 0 mm 2 mps 753 mmHg 63%
    20:00 +16°C° 0 mm 2 mps 753 mmHg 65%
    21:00 +15°C° 0 mm 2 mps 753 mmHg 67%
    22:00 +15°C° 0 mm 2 mps 753 mmHg 70%
    23:00 +14°C° 0 mm 2 mps 753 mmHg 71%

    22 October, Sunday

    Time Temperature Precipitation Wind Pressure Humidity
    00:00 +14°C° 0 mm 1 mps 753 mmHg 73%
    01:00 +14°C° 0 mm 1 mps 753 mmHg 74%
    02:00 +14°C° 0 mm 1 mps 753 mmHg 75%
    03:00 +13°C° 0 mm 1 mps 752 mmHg 76%
    04:00 +13°C° 0 mm 1 mps 752 mmHg 76%
    05:00 +13°C° 0 mm 1 mps 752 mmHg 77%
    06:00 +13°C° 0 mm 1 mps 752 mmHg 78%
    07:00 +13°C° 0 mm 1 mps 752 mmHg 79%
    08:00 +15°C° 0 mm 1 mps 752 mmHg 75%
    09:00 +16°C° 0 mm 2 mps 752 mmHg 71%
    10:00 +17°C° 0 mm 3 mps 752 mmHg 66%
    11:00 +17°C° 0.1 mm 3 mps 752 mmHg 67%
    12:00 +17°C° 0.1 mm 4 mps 751 mmHg 67%
    13:00 +17°C° 0.1 mm 4 mps 751 mmHg 67%
    14:00 +15°C° 0.7 mm 5 mps 751 mmHg 71%
    15:00 +14°C° 0.7 mm 6 mps 751 mmHg 75%
    16:00 +11°C° 0.7 mm 7 mps 750 mmHg 79%
    17:00 +11°C° 2.3 mm 7 mps 751 mmHg 80%
    18:00 +10°C° 2.3 mm 8 mps 751 mmHg 81%
    19:00 +10°C° 2.3 mm 8 mps 752 mmHg 83%
    20:00 +9°C° 0.6 mm 8 mps 752 mmHg 80%
    21:00 +9°C° 0.6 mm 8 mps 752 mmHg 78%
    22:00 +9°C° 0.6 mm 8 mps 752 mmHg 76%
    23:00 +9°C° 0.1 mm 8 mps 752 mmHg 75%

    23 October, Monday

    Time Temperature Precipitation Wind Pressure Humidity
    00:00 +9°C° 0.1 mm 8 mps 752 mmHg 73%
    01:00 +9°C° 0.1 mm 8 mps 752 mmHg 72%
    02:00 +9°C° 0 mm 8 mps 752 mmHg 72%
    03:00 +9°C° 0 mm 8 mps 752 mmHg 72%
    04:00 +8°C° 0 mm 9 mps 752 mmHg 71%
    05:00 +8°C° 0 mm 9 mps 752 mmHg 71%
    06:00 +7°C° 0 mm 9 mps 752 mmHg 72%
    07:00 +7°C° 0 mm 9 mps 752 mmHg 72%
    08:00 +8°C° 0.1 mm 9 mps 752 mmHg 70%
    09:00 +8°C° 0.1 mm 10 mps 752 mmHg 69%
    10:00 +8°C° 0.1 mm 10 mps 752 mmHg 68%
    11:00 +9°C° 0.1 mm 10 mps 752 mmHg 65%
    12:00 +10°C° 0.1 mm 9 mps 752 mmHg 63%
    13:00 +11°C° 0.1 mm 9 mps 752 mmHg 61%
    14:00 +11°C° 0.1 mm 9 mps 753 mmHg 62%
    15:00 +11°C° 0.1 mm 8 mps 753 mmHg 62%
    16:00 +11°C° 0.1 mm 7 mps 754 mmHg 62%
    17:00 +10°C° 0 mm 7 mps 754 mmHg 65%
    18:00 +10°C° 0 mm 7 mps 755 mmHg 67%
    19:00 +10°C° 0 mm 7 mps 755 mmHg 69%
    20:00 +9°C° 0 mm 7 mps 756 mmHg 71%
    21:00 +9°C° 0 mm 7 mps 756 mmHg 73%
    22:00 +9°C° 0 mm 7 mps 757 mmHg 75%
    23:00 +8°C° 0 mm 6 mps 757 mmHg 76%

    24 October, Tuesday

    Time Temperature Precipitation Wind Pressure Humidity
    00:00 +8°C° 0 mm 6 mps 757 mmHg 77%
    01:00 +8°C° 0 mm 6 mps 757 mmHg 78%
    02:00 +8°C° 0 mm 6 mps 758 mmHg 79%
    03:00 +8°C° 0 mm 6 mps 758 mmHg 80%
    04:00 +7°C° 0 mm 6 mps 758 mmHg 81%
    05:00 +7°C° 0 mm 5 mps 759 mmHg 81%
    06:00 +7°C° 0 mm 5 mps 759 mmHg 82%
    07:00 +7°C° 0 mm 5 mps 759 mmHg 83%
    08:00 +9°C° 0 mm 5 mps 759 mmHg 77%
    09:00 +10°C° 0 mm 6 mps 759 mmHg 71%
    10:00 +11°C° 0 mm 6 mps 759 mmHg 66%
    11:00 +13°C° 0 mm 6 mps 759 mmHg 62%
    12:00 +14°C° 0 mm 5 mps 759 mmHg 59%
    13:00 +15°C° 0 mm 5 mps 759 mmHg 56%
    14:00 +15°C° 0 mm 4 mps 759 mmHg 59%
    15:00 +14°C° 0 mm 4 mps 759 mmHg 61%
    16:00 +14°C° 0 mm 3 mps 759 mmHg 63%
    17:00 +14°C° 0 mm 2 mps 759 mmHg 68%
    18:00 +13°C° 0 mm 2 mps 759 mmHg 73%
    19:00 +11°C° 0 mm 1 mps 760 mmHg 78%
    20:00 +11°C° 0 mm 1 mps 760 mmHg 79%
    21:00 +11°C° 0 mm 1 mps 760 mmHg 81%
    22:00 +10°C° 0 mm 1 mps 761 mmHg 82%
    23:00 +10°C° 0 mm 1 mps 760 mmHg 83%
    Show more